User: anonymous   Login
Location: NJAA Observatory
(40.6819°N, 74.8979°W)
Time: 09:03:20
(UTC-04:00)
Language:

Cosmos 2237 Rocket - Orbit

View from above orbital plane
View from above orbital plane
View from above satellite
View from above satellite

Ground track
Ground track

The orbit data is extracted from the following two-line orbital elements,

1 22566U 93016B   16145.45196999  .00000139  00000-0  96677-4 0  9991
2 22566  71.0053 162.8900 0010262 353.3033   6.7951 14.14924504196284
Epoch (UTC): 24 May 2016 10:50:50
Eccentricity: 0.0010262
inclination: 71.0053°
perigee height: 835 km
apogee height: 850 km
right ascension of ascending node: 162.8900°
argument of perigee: 353.3033°
revolutions per day: 14.14924504
mean anomaly at epoch: 6.7951°
orbit number at epoch: 19628

The dashed part of the orbit path shows where the satellite is in the earth's shadow,  

DLR